Location: Pine Mountain Observatory
(43.7910°N, 120.9377°W)
Time: 05:02:42
(UTC-07:00)

Explorer 7 - Visible Passes

Search period start: 23 May 2019 00:00
Search period end: 02 June 2019 00:00
Orbit: 485 x 680 km, 50.3° (Epoch: 22 May)

Date Brightness Start Highest point End Pass type
(mag) Time Alt. Az. Time Alt. Az. Time Alt. Az.
23 May 7.9 01:32:35 10° WNW 01:37:01 48° NNE 01:41:11 10° E visible
23 May 7.0 03:13:23 10° WNW 03:17:39 50° SW 03:21:38 10° SE visible
23 May 8.1 22:15:04 10° W 22:19:46 50° NNW 22:24:17 10° ENE visible
23 May 8.6 23:56:42 10° WNW 00:01:04 36° N 00:05:11 10° ENE visible
24 May 7.3 01:37:41 10° WNW 01:42:13 62° NNE 01:43:55 34° E visible
24 May 8.7 03:18:41 10° WNW 03:20:04 18° W 03:20:04 18° W visible
24 May 8.4 22:20:25 10° W 22:25:01 42° NNW 22:29:25 10° ENE visible
25 May 8.4 00:01:56 10° WNW 00:06:21 38° N 00:10:31 10° ENE visible
25 May 7.0 01:42:48 10° WNW 01:46:58 73° NW 01:46:58 73° NW visible
25 May 8.6 22:25:47 10° WNW 22:30:18 38° N 22:34:37 10° ENE visible
26 May 8.1 00:07:07 10° WNW 00:11:38 44° NNE 00:14:28 19° ENE visible
26 May 8.0 01:47:55 10° WNW 01:50:44 36° WNW 01:50:44 36° WNW visible
26 May 8.6 22:31:07 10° WNW 22:35:35 37° N 22:39:52 10° ENE visible
27 May 7.7 00:12:15 10° WNW 00:16:51 53° NNE 00:18:30 34° ENE visible
27 May 8.8 01:53:07 10° WNW 01:54:47 21° W 01:54:47 21° W visible
27 May 8.5 22:36:25 10° WNW 22:40:54 37° N 22:45:10 10° ENE visible
28 May 7.2 00:17:22 10° WNW 00:22:03 70° NNE 00:22:41 59° ENE visible
28 May 9.4 01:58:28 10° WNW 01:58:57 12° W 01:58:57 12° W visible
28 May 8.3 22:41:38 10° WNW 22:46:11 41° N 22:50:31 10° E visible
29 May 6.9 00:22:28 10° WNW 00:26:58 81° W 00:26:58 81° W visible
29 May 8.6 21:05:32 10° WNW 21:10:06 38° N 21:14:31 10° ENE visible
29 May 8.0 22:46:48 10° WNW 22:51:27 47° NNE 22:55:02 15° E visible
30 May 7.5 00:27:37 10° WNW 00:31:20 49° W 00:31:20 49° W visible
30 May 8.6 21:10:51 10° WNW 21:15:24 37° N 21:19:47 10° ENE visible
30 May 7.6 22:51:55 10° WNW 22:56:40 59° NNE 22:59:26 23° E visible
31 May 8.3 00:32:51 10° WNW 00:35:44 30° W 00:35:44 30° W visible
31 May 8.5 21:16:08 10° WNW 21:20:42 39° N 21:25:07 10° ENE visible
31 May 7.2 22:57:01 10° WNW 23:01:50 77° NNE 23:03:53 33° ESE visible
01 Jun 8.9 00:38:15 10° W 00:40:12 19° W 00:40:12 19° W visible
01 Jun 8.2 21:21:20 10° WNW 21:25:59 43° NNE 21:30:28 10° E visible
01 Jun 7.0 23:02:08 10° WNW 23:06:56 77° SSW 23:08:24 43° SE visible
